Theta_e
309 309 308 308 308 307 306 304 304 303 302 301 300 299 299 299 298 297 296 296 296 296 295 295 295 295 295 295 295 295 295 295 295 295 295 295 295 294 294 295 295 295 296 296 296 296 297 299 300 299 299 299 300 301 302 301 301 302 303 303 304 304 305 305 305 306 306 306 308 310 313 315 317 320 321 323 326 328 328 328 329 329 329 328 328
309 308 307 307 307 306 304 302 302 300 299 298 298 297 297 297 296 296 296 295 295 295 295 295 295 295 295 295 295 295 295 295 295 295 295 294 294 294 294 294 295 295 295 295 296 296 297 299 299 299 299 299 300 300 300 300 299 300 301 302 302 302 303 303 304 304 305 303 303 305 307 309 312 316 319 321 323 325 327 327 328 329 329 330 329
308 307 307 306 305 303 301 300 299 298 297 297 296 296 296 296 296 295 295 295 295 295 295 295 295 295 295 294 294 294 294 294 294 294 294 294 294 294 294 294 295 295 295 295 296 297 297 298 299 299 299 299 299 299 299 299 298 299 300 300 300 301 301 302 302 303 303 303 302 304 305 305 307 310 313 317 320 322 324 326 326 327 329 329 330
307 306 306 304 302 300 299 298 297 296 296 296 296 296 295 295 295 295 295 295 295 295 295 295 294 294 294 294 294 294 294 294 294 294 294 294 294 294 294 295 295 295 295 295 296 297 297 298 299 299 298 298 298 298 298 298 298 298 298 299 299 299 300 300 301 301 302 302 303 303 304 305 305 306 308 311 315 319 321 324 324 326 328 328 329
304 304 303 301 299 298 297 296 295 295 295 295 295 295 295 295 295 294 295 294 295 295 294 294 294 294 294 294 294 294 294 294 294 294 294 294 294 294 294 295 295 295 295 295 296 297 297 298 298 298 298 298 298 297 297 297 297 298 298 298 298 299 299 300 300 301 301 302 303 303 303 304 305 306 307 309 312 315 319 321 323 324 325 326 328
302 301 300 299 298 297 296 295 295 295 295 295 295 295 294 294 294 294 294 294 294 294 294 294 294 294 294 294 294 294 294 294 294 294 294 294 294 294 294 294 295 294 295 296 297 297 297 298 298 298 297 297 297 297 297 296 297 297 297 297 298 298 299 299 300 300 301 301 302 303 303 304 305 306 307 308 311 313 315 318 319 321 323 325 327
301 300 299 297 296 295 295 295 295 295 295 295 295 294 294 294 294 294 294 294 294 294 294 294 294 294 294 294 294 294 294 294 294 294 294 294 294 294 294 294 294 294 294 296 297 297 297 297 297 297 297 297 296 296 296 296 296 296 297 297 297 298 298 298 299 299 300 300 301 302 303 303 304 305 306 307 309 312 314 317 318 319 321 323 326
301 298 297 296 295 294 294 295 295 295 294 294 294 294 294 294 294 294 294 294 294 294 294 294 294 294 294 294 294 294 293 293 294 294 294 294 294 294 294 294 294 294 295 296 296 297 297 297 297 297 297 296 296 296 296 296 296 296 297 297 297 297 297 298 298 298 299 299 300 301 302 302 303 304 305 306 308 310 313 316 318 320 321 322 325
301 297 296 295 295 294 294 294 294 294 294 294 294 294 294 294 294 294 294 294 294 294 293 293 294 293 293 293 293 293 293 293 293 294 294 294 294 294 294 294 294 295 295 296 296 297 297 297 297 297 296 296 296 296 296 296 296 296 297 297 298 297 297 297 297 297 298 298 299 300 300 301 302 303 304 304 306 308 309 311 313 316 319 322 325
301 297 296 295 294 295 294 294 294 294 294 294 294 294 294 294 294 293 293 293 293 293 293 293 293 293 293 293 293 293 293 293 293 293 293 294 293 294 294 295 296 296 296 296 296 297 297 297 297 297 296 296 296 295 295 296 296 296 297 297 297 297 297 296 297 297 297 298 298 298 299 299 300 301 302 303 303 305 306 308 310 312 314 318 322
300 297 296 295 295 294 294 294 294 294 294 294 294 294 293 293 293 293 293 293 293 293 293 293 293 293 293 293 293 293 293 293 293 293 293 294 293 294 296 296 297 297 296 297 296 297 297 297 297 297 296 296 296 296 295 296 296 296 297 297 297 297 296 296 297 297 297 297 297 298 298 298 299 300 300 301 302 303 304 306 308 310 312 315 318
299 297 296 295 295 294 294 294 294 293 294 294 294 293 293 293 293 293 293 293 293 293 293 293 293 293 293 293 293 293 293 293 293 293 293 294 293 295 296 297 297 297 297 297 297 296 297 296 297 296 296 296 296 295 295 296 296 296 297 297 297 297 296 296 296 296 297 297 297 297 298 298 298 299 300 300 301 301 302 303 305 307 310 313 316
298 297 296 295 295 294 293 294 294 294 294 293 293 293 293 293 293 293 293 292 292 292 292 292 292 292 293 293 293 293 293 293 293 293 293 293 293 295 297 297 297 297 297 297 296 296 296 296 296 296 296 296 295 295 295 295 296 296 296 297 297 297 296 296 296 296 296 297 297 297 297 297 297 298 300 299 299 300 300 301 302 304 306 310 313
298 297 296 295 294 294 293 294 294 294 294 293 293 293 293 293 293 292 292 292 292 292 292 292 292 292 292 293 293 293 293 293 293 293 293 293 293 295 297 297 297 297 297 296 296 296 296 296 296 295 295 295 295 294 295 295 296 296 296 296 297 297 296 296 296 296 296 296 296 296 296 296 295 296 299 299 298 298 299 300 301 302 305 307 310
297 297 295 295 294 293 293 294 294 294 293 293 293 293 293 293 292 292 292 292 292 292 292 292 292 292 292 292 292 293 292 293 293 293 293 293 294 295 297 297 297 297 296 296 296 296 295 295 295 295 294 294 294 294 295 295 295 296 296 296 296 296 296 296 296 296 296 296 295 295 296 296 296 296 297 298 298 298 299 300 300 302 304 306 308
297 295 295 294 294 293 294 294 294 293 293 293 293 293 293 293 292 292 292 292 292 292 292 292 292 292 292 292 292 293 292 293 293 293 293 293 294 295 296 297 297 296 296 296 296 296 295 294 294 293 293 293 294 294 294 295 295 295 295 296 296 296 296 296 296 296 296 296 295 296 296 297 297 296 297 299 299 299 299 300 301 302 303 305 307
295 294 294 294 294 294 294 294 293 293 293 293 293 293 293 293 292 292 292 292 292 292 292 292 292 292 292 292 293 293 292 292 292 293 293 293 294 295 296 296 297 296 296 296 296 295 295 294 293 292 292 293 293 294 294 294 295 295 295 295 295 296 296 297 297 296 296 296 296 296 296 297 297 297 297 299 299 299 299 300 301 303 304 305 307
295 295 295 294 294 294 294 293 293 293 293 293 293 293 293 293 292 292 292 292 292 292 292 292 292 292 292 292 292 293 292 292 292 292 292 292 293 295 295 296 296 296 296 296 296 295 295 294 293 292 292 292 293 293 294 294 295 295 295 295 295 295 296 296 296 296 297 297 297 296 296 296 297 297 298 298 299 299 299 300 301 303 305 305 307
295 295 294 294 294 294 294 294 294 293 293 293 293 293 293 293 293 292 292 292 292 292 292 292 292 292 292 292 292 292 292 292 292 292 292 292 292 294 295 295 295 296 295 295 295 295 295 295 293 292 292 292 292 293 293 294 294 295 295 295 295 295 295 295 295 296 296 297 297 296 296 296 296 297 297 298 299 299 299 300 301 303 304 306 308
295 294 294 294 294 294 294 294 294 293 293 293 293 293 293 293 293 292 292 292 292 292 292 292 292 291 292 292 292 292 292 292 292 292 292 292 292 293 294 294 294 296 295 295 295 295 294 294 293 292 292 292 292 292 293 293 294 294 294 294 294 294 295 295 295 295 296 296 297 296 296 296 296 296 297 297 298 298 299 300 302 303 304 306 309
294 294 294 294 294 294 294 293 293 293 293 293 293 293 293 293 293 292 292 292 292 292 292 292 292 292 291 291 291 291 291 292 292 292 292 292 292 292 292 292 293 295 295 294 295 294 294 294 293 291 291 292 292 292 292 293 293 294 294 294 294 294 294 295 295 295 296 296 297 297 296 296 296 296 297 297 297 298 299 301 303 304 304 306 308
295 295 295 295 295 294 293 293 293 293 293 293 293 293 293 293 293 292 292 292 292 292 292 293 293 293 293 293 292 291 291 291 291 292 292 292 292 292 292 291 292 294 295 294 294 294 293 292 292 291 291 292 292 292 292 292 293 293 294 294 294 294 294 295 295 295 296 296 297 297 296 296 296 296 296 296 297 298 300 302 304 305 306 307 309
296 296 296 296 295 294 294 293 293 293 293 294 294 293 293 293 293 293 293 294 294 293 293 294 294 295 295 295 294 293 293 292 290 290 291 292 292 292 292 291 291 293 294 294 294 293 292 291 291 291 291 291 291 292 292 292 292 293 293 293 293 293 294 294 295 295 296 296 296 296 296 296 296 295 295 296 296 297 299 302 304 305 307 309 310
297 297 297 295 295 294 294 294 293 293 293 293 294 293 293 293 293 294 295 296 296 296 296 295 296 295 295 295 295 295 294 294 292 290 290 291 292 292 292 292 291 292 294 294 293 293 292 291 291 291 291 290 291 292 293 292 292 292 292 293 293 293 293 294 295 295 296 296 296 296 296 296 295 295 295 295 295 297 299 302 303 305 307 309 310
298 298 297 296 296 295 295 294 294 294 294 294 294 294 294 295 296 295 296 297 296 296 296 296 296 296 295 296 296 295 295 294 292 291 290 290 291 291 292 292 292 292 293 293 292 292 292 291 291 291 291 291 291 292 293 293 292 292 292 293 293 293 293 293 294 295 295 296 296 296 296 296 295 295 294 294 295 296 299 302 304 305 307 307 308
298 298 298 297 297 296 296 296 295 294 294 295 296 296 296 297 297 296 297 297 296 296 296 296 296 296 296 296 296 296 295 294 292 290 290 290 291 291 291 291 291 292 292 292 292 293 293 292 292 292 292 291 291 292 293 293 293 293 293 293 293 293 292 293 294 294 294 295 295 295 295 295 296 295 295 295 295 296 297 300 302 305 306 306 307
299 299 299 298 297 297 297 297 296 295 295 296 297 297 297 297 297 297 298 297 297 296 296 296 296 296 296 296 296 296 295 293 291 290 290 290 290 291 290 290 290 291 292 291 292 293 293 293 293 292 292 292 292 292 293 293 293 293 293 293 293 292 292 292 293 294 294 294 295 295 295 296 296 296 295 295 295 295 296 298 300 303 304 304 306
299 299 299 298 298 298 297 296 296 297 297 297 298 297 297 298 297 297 296 297 297 297 296 296 296 296 296 296 295 296 295 293 291 290 290 290 290 290 290 290 289 290 291 291 291 292 293 294 293 293 293 292 292 292 293 293 293 293 293 293 293 292 292 292 292 293 293 293 294 295 296 296 296 296 296 295 295 295 295 296 298 300 302 303 304
299 299 299 299 299 299 298 297 297 298 298 298 298 298 297 297 298 297 295 294 294 295 295 296 295 294 296 295 294 294 294 293 291 290 290 290 290 290 290 290 289 289 290 290 291 292 293 294 293 293 293 292 292 292 293 293 292 292 293 293 293 292 291 291 292 292 293 293 294 294 295 295 295 296 296 296 295 295 295 295 296 298 300 302 303
300 300 300 299 299 299 299 298 298 299 298 298 298 297 295 294 296 296 295 293 293 293 294 294 293 293 294 294 293 292 292 292 291 291 291 290 290 290 290 290 290 290 290 290 291 293 293 294 293 293 293 292 292 292 293 293 292 292 293 292 292 292 291 291 291 292 292 293 293 294 295 295 295 295 296 296 296 295 295 294 295 296 298 300 301
300 300 300 300 299 299 300 299 299 299 299 299 298 298 297 295 294 294 293 293 293 293 293 293 293 292 293 293 292 291 291 291 291 291 291 291 291 290 290 290 290 290 290 290 292 293 293 293 294 293 293 292 292 292 292 293 292 292 293 292 292 292 291 290 291 292 292 292 293 294 295 294 294 295 296 296 296 296 295 295 295 295 296 297 299
300 300 300 300 299 299 300 300 300 299 299 299 299 299 299 298 297 295 294 293 293 293 292 293 293 292 292 292 292 291 291 291 291 291 291 291 291 290 290 290 290 290 290 291 293 293 293 293 294 293 293 292 292 292 292 292 292 292 292 292 292 292 291 290 291 292 292 292 292 294 294 294 294 295 295 296 296 296 296 295 294 294 294 295 297
301 300 300 300 299 299 300 300 300 299 299 299 299 298 299 299 299 298 296 294 293 293 293 292 292 292 292 292 291 291 291 291 291 291 291 291 291 290 290 290 290 290 291 293 293 293 293 293 293 293 293 292 292 292 292 292 292 292 292 292 292 292 291 290 290 292 292 291 292 293 293 294 294 294 295 296 296 296 296 295 294 294 294 294 295
301 301 300 300 300 300 300 300 300 300 299 299 299 299 299 298 299 299 298 297 296 296 295 294 293 292 292 292 291 291 291 291 291 291 291 291 290 290 290 291 292 292 293 293 293 293 294 293 293 293 293 292 292 292 292 292 292 292 292 292 292 292 291 290 290 291 292 291 292 293 293 293 294 294 295 296 296 296 296 296 295 294 294 294 294
301 301 300 300 300 300 300 300 300 300 299 299 299 299 299 298 298 298 298 298 298 298 298 297 295 293 292 291 291 291 291 291 291 291 291 291 290 290 291 293 294 294 294 294 293 293 293 293 293 293 293 292 292 292 291 291 292 292 292 292 292 292 291 290 289 289 291 291 291 292 293 293 293 294 295 295 296 296 296 296 295 295 294 294 294
301 301 300 299 300 301 300 300 300 299 299 299 299 299 298 298 298 298 297 297 297 297 298 298 297 295 294 293 292 291 290 291 291 291 291 290 290 291 293 294 294 294 294 294 293 293 293 293 292 293 293 292 292 292 292 291 291 291 291 292 292 291 291 290 289 288 290 291 291 291 292 293 293 294 295 295 296 296 296 296 296 296 295 295 294
301 301 301 300 300 300 301 300 299 299 299 299 298 298 298 298 298 298 298 298 297 297 297 297 297 296 296 296 294 292 290 290 291 291 291 291 291 292 294 295 294 294 294 294 293 293 293 293 292 292 293 292 292 292 292 291 291 291 290 291 291 291 291 291 290 288 289 290 291 291 292 292 293 293 294 295 295 296 296 296 297 297 296 296 295
300 300 301 300 300 300 301 300 299 298 298 298 298 298 298 298 298 298 298 298 297 297 297 297 297 297 297 297 296 293 292 292 294 294 294 293 293 294 295 295 294 294 294 294 293 293 293 293 292 292 292 292 291 291 291 291 291 290 290 290 291 290 290 290 290 288 289 290 291 291 292 292 293 293 294 294 295 296 296 296 296 297 297 297 296
300 300 300 299 299 300 300 300 299 298 298 298 298 298 298 298 298 298 298 298 297 297 297 297 297 297 297 297 297 296 295 295 296 295 295 294 294 294 295 295 294 294 294 294 294 293 293 293 292 292 292 292 291 291 291 290 290 290 290 290 290 290 290 290 289 289 289 290 290 291 291 292 292 293 293 294 294 295 296 296 296 296 297 297 297
301 300 299 298 298 299 300 299 299 298 298 298 298 298 298 298 298 298 298 298 298 298 297 297 297 297 297 297 296 295 295 295 296 295 295 295 295 295 295 295 294 294 294 294 294 293 293 293 292 292 292 291 291 291 290 289 289 289 289 289 289 289 290 289 289 288 289 289 289 290 290 291 292 292 293 293 294 295 295 296 296 296 296 297 297
301 300 299 296 296 298 299 299 299 299 298 298 298 298 298 298 298 298 298 298 298 298 297 297 297 297 297 296 294 292 293 294 295 296 295 295 295 295 295 295 294 294 294 294 293 293 292 292 292 292 291 291 291 290 290 289 289 289 289 289 289 289 289 289 288 288 288 289 289 289 290 290 291 292 292 293 293 294 294 295 296 296 296 296 296
300 300 299 296 296 297 299 299 298 299 299 298 298 298 298 298 298 298 298 298 298 297 297 297 297 297 297 296 293 291 291 293 295 295 295 295 295 295 295 295 295 295 294 294 293 293 292 291 291 291 291 291 291 290 290 289 289 289 289 288 288 288 288 289 288 288 288 289 289 289 289 289 290 291 292 292 293 293 294 294 295 296 296 295 296
301 300 300 298 297 298 298 299 298 298 299 299 299 299 298 298 298 298 298 297 297 297 297 297 297 297 297 296 294 291 291 293 295 295 295 296 295 295 295 295 295 295 294 294 294 293 292 291 291 291 290 291 291 291 290 290 289 289 289 289 288 288 288 288 288 289 288 288 289 289 289 289 289 290 291 292 292 292 293 293 294 295 295 296 295
301 300 300 299 299 298 298 298 299 299 299 299 298 298 298 298 298 298 298 297 297 297 297 297 297 297 297 297 295 293 293 294 295 296 296 296 295 295 295 295 295 294 294 294 293 293 291 290 290 290 290 290 290 290 291 290 290 289 289 289 288 288 288 288 288 288 288 289 289 289 289 289 289 289 290 291 292 292 292 293 293 293 294 295 295
301 300 300 300 299 299 299 299 298 299 299 299 298 298 298 298 297 297 297 297 297 297 297 297 297 297 297 297 296 296 295 295 296 296 296 296 296 295 295 295 295 294 294 293 293 292 290 290 290 290 290 290 289 290 291 291 290 290 289 289 289 288 288 288 288 288 288 288 289 289 289 289 289 288 288 290 291 291 292 292 292 293 293 294 295
300 300 300 300 300 299 299 299 299 299 299 299 299 298 298 298 297 297 297 297 297 297 297 297 297 297 297 297 296 296 296 296 296 296 296 296 296 296 296 295 295 294 294 294 293 292 290 290 290 290 290 290 289 289 290 291 291 290 290 289 289 288 288 288 288 288 288 288 288 288 288 289 289 289 288 288 289 290 291 292 292 292 292 293 294
299 299 299 299 299 299 299 299 299 299 299 299 299 299 299 298 298 298 298 297 297 297 297 297 297 297 297 297 297 296 296 296 296 296 296 296 296 296 296 295 295 294 294 293 293 292 291 290 290 289 289 290 290 289 290 291 291 291 290 290 289 288 288 288 288 288 288 288 288 288 288 288 288 289 289 288 288 288 289 291 292 292 292 292 293
299 299 299 299 299 299 299 299 299 299 299 299 298 298 298 298 298 298 298 298 297 297 297 297 297 297 297 297 297 297 296 296 296 296 296 296 296 296 296 296 295 294 294 294 293 292 291 291 290 290 289 289 289 290 290 290 291 291 290 290 289 289 289 288 288 288 288 288 288 288 288 288 288 288 289 289 289 288 287 288 291 292 292 292 292
299 299 299 299 299 299 299 299 299 299 299 298 298 298 298 298 298 298 298 298 298 298 297 297 297 297 297 297 297 297 297 297 296 296 296 296 296 296 296 296 295 294 294 294 294 293 292 291 291 290 290 289 289 289 290 290 290 290 290 290 290 289 289 289 289 288 288 288 288 288 288 288 288 288 288 288 289 289 288 287 288 290 291 292 292
299 299 299 299 299 299 299 299 299 299 299 299 298 298 298 298 298 298 298 298 298 298 298 297 298 298 298 298 297 297 297 297 297 297 297 297 296 296 296 296 296 295 294 294 294 294 293 292 291 291 291 290 290 289 289 289 290 290 290 290 290 290 290 290 289 289 288 288 288 288 288 288 288 288 288 288 288 289 289 288 288 289 291 291 291
299 299 299 299 299 299 299 299 299 299 299 299 299 299 299 298 298 298 298 298 298 298 297 297 297 298 297 298 297 297 297 297 297 297 297 297 297 297 296 296 296 295 294 294 294 294 294 293 292 291 291 291 290 290 290 289 289 290 290 290 290 290 290 290 290 290 289 289 288 288 288 287 287 287 288 288 288 288 288 288 288 289 290 291 291
Wind_Speed
8 8 9 9 10 12 13 15 16 16 17 18 18 18 17 17 17 16 16 17 17 17 17 18 19 19 20 21 22 22 22 23 24 24 25 25 26 27 27 27 26 26 26 25 25 25 23 20 19 20 20 20 20 19 19 20 22 22 19 18 19 19 18 18 22 27 32 33 35 36 37 38 38 38 37 34 30 27 25 26 27 27 27 28 29
8 8 9 9 11 13 15 16 16 16 17 17 17 18 17 17 17 17 17 17 17 17 18 19 19 20 21 21 22 22 23 23 24 25 25 25 26 26 26 25 25 25 26 25 25 25 23 21 19 19 19 19 20 20 20 22 25 24 21 20 22 22 21 20 22 25 30 35 37 36 34 35 36 36 38 39 37 33 28 26 26 27 27 27 28
8 9 9 10 12 15 16 16 16 17 18 17 18 18 18 18 17 17 17 17 17 17 18 19 19 20 21 21 21 22 23 23 24 24 25 25 25 25 25 25 25 25 26 25 25 24 22 21 18 17 17 18 20 20 20 23 25 24 21 20 21 24 23 20 21 24 28 35 39 38 35 35 36 35 35 38 39 38 35 30 26 26 27 26 26
9 10 10 11 14 16 16 16 17 18 18 18 19 19 18 18 17 17 17 17 17 18 18 19 19 20 21 21 21 22 22 23 23 23 24 24 24 24 24 24 24 25 25 25 25 24 23 21 18 16 17 19 20 20 20 23 24 22 20 20 20 22 22 20 21 23 26 31 37 39 37 36 38 36 33 34 36 37 38 37 34 30 28 27 26
10 11 11 13 15 16 17 18 18 19 19 19 19 19 18 18 17 17 17 17 17 18 18 19 20 20 21 21 21 21 22 22 22 22 23 23 23 23 23 24 24 24 25 24 24 23 22 21 18 17 19 20 21 22 23 24 23 21 21 21 20 19 20 20 21 22 24 28 33 38 37 35 36 36 32 31 31 31 33 38 41 38 33 31 30
11 12 12 14 16 17 18 19 19 20 19 19 19 18 18 18 17 17 17 17 17 18 18 19 19 20 20 20 20 20 21 21 21 22 22 23 23 23 23 24 24 24 25 24 22 22 21 19 17 18 19 20 22 24 25 25 23 23 22 21 20 20 22 23 22 22 25 26 28 33 35 32 32 33 32 29 28 29 30 36 43 44 37 32 31
13 13 14 16 18 19 20 20 20 19 19 19 18 18 18 17 17 16 16 17 17 18 18 18 18 19 18 19 19 20 20 20 21 22 22 23 23 23 23 23 23 24 24 23 21 21 20 17 17 18 19 21 22 23 25 26 26 27 26 24 23 24 24 25 25 24 25 27 27 29 31 31 29 31 33 31 29 27 27 31 37 41 39 35 32
13 14 16 19 20 20 20 20 20 19 19 18 18 18 17 17 16 16 16 16 17 17 17 18 18 17 18 18 19 19 20 21 22 22 23 23 23 23 23 23 23 23 22 21 20 19 19 17 16 17 19 21 23 24 27 31 31 32 32 30 29 28 26 25 26 26 26 27 28 28 29 31 29 29 32 31 27 25 24 26 31 34 35 34 34
14 15 18 20 20 21 20 20 20 19 19 18 17 17 17 16 16 16 15 15 16 17 17 17 17 17 17 18 18 19 21 22 23 23 22 22 22 23 24 23 23 22 20 19 18 18 18 17 16 18 20 24 26 27 32 36 35 35 36 35 33 30 27 25 25 26 26 27 28 29 29 31 30 29 30 29 27 27 27 28 32 33 32 31 32
15 17 19 20 20 20 20 20 19 19 18 18 17 17 16 16 16 15 15 15 16 17 16 16 16 17 17 18 18 20 21 22 21 21 22 21 21 22 23 22 22 21 20 20 19 19 18 18 18 19 21 24 25 27 34 37 36 36 35 33 32 29 27 27 26 25 26 28 29 29 30 32 32 30 30 31 30 29 29 29 31 32 33 34 33
16 18 19 20 20 20 20 20 19 18 18 17 17 16 16 16 15 15 15 16 17 17 16 16 17 18 18 18 19 20 20 20 20 21 21 21 21 21 20 19 19 19 20 20 20 20 20 19 19 18 20 22 22 26 34 38 37 37 35 32 30 28 27 28 27 26 26 27 28 28 29 33 34 33 32 32 32 30 29 28 29 30 31 34 35
17 18 19 18 18 19 20 19 19 18 18 17 17 16 16 16 16 16 16 17 17 17 17 18 18 18 18 18 19 19 19 19 19 21 22 21 22 21 18 16 17 17 18 18 19 20 20 20 19 18 20 22 23 28 35 38 38 37 35 32 29 26 26 27 27 27 27 27 28 27 28 31 35 37 36 34 34 34 32 31 31 31 30 32 35
18 18 18 18 19 20 20 19 19 18 18 17 17 16 16 16 17 17 18 18 18 18 18 19 19 19 19 19 19 19 19 19 19 21 21 21 23 22 17 15 16 17 18 18 18 20 20 19 19 20 21 21 25 31 36 38 38 34 31 29 27 27 28 26 25 25 27 28 28 30 31 33 36 40 40 37 38 39 37 36 35 33 33 33 34
19 18 17 18 19 21 20 20 19 18 18 17 17 17 17 17 18 19 19 19 19 19 19 19 19 19 19 19 19 19 20 20 20 21 20 21 23 22 17 15 16 16 17 18 18 19 20 20 20 22 22 22 27 33 36 38 36 29 25 28 29 29 28 25 25 28 28 27 27 29 33 34 35 39 40 38 37 37 37 38 37 36 38 37 35
19 18 18 19 21 21 21 20 19 18 18 18 17 18 18 19 19 20 20 19 19 20 20 20 20 20 19 20 20 20 21 21 21 22 21 21 23 21 17 16 16 16 17 18 18 19 20 21 22 23 24 24 29 33 34 37 34 26 25 29 30 28 27 26 29 30 28 26 26 28 32 34 34 35 36 36 36 36 36 39 39 39 42 42 41
20 20 20 21 21 22 21 20 19 19 18 18 18 19 19 20 20 20 20 20 20 20 20 20 20 20 20 21 20 21 22 22 22 24 23 22 23 20 16 15 16 16 17 18 19 19 19 21 24 26 27 27 30 32 33 36 32 24 26 30 29 29 31 32 33 31 28 27 27 28 30 31 32 32 32 34 35 34 34 36 37 38 40 41 43
21 22 22 22 22 22 21 20 19 19 18 18 19 19 19 20 20 20 20 20 20 20 20 20 20 20 20 21 21 20 22 23 23 24 25 24 23 20 17 16 16 17 17 17 18 19 19 22 26 28 28 29 30 31 33 35 30 24 27 31 31 33 36 37 37 34 30 29 29 28 29 28 29 29 28 29 30 29 30 32 33 34 37 39 43
23 23 23 22 22 22 20 19 19 18 18 18 19 20 19 19 20 20 19 20 20 20 20 20 20 21 21 22 21 21 22 23 24 24 25 25 24 20 17 16 16 16 17 16 17 18 19 22 26 28 28 29 30 30 32 34 30 24 26 32 36 38 39 39 40 39 35 33 32 31 30 28 27 27 25 24 24 22 24 27 28 31 34 37 40
24 24 24 24 23 21 20 19 18 18 18 18 18 19 19 19 19 19 19 19 19 19 19 19 19 20 21 21 22 22 22 22 23 24 25 25 25 21 18 17 16 16 17 16 16 17 18 19 24 27 27 27 29 29 31 33 30 25 26 32 38 40 40 40 41 41 39 38 37 36 34 31 28 26 23 21 19 18 21 23 24 27 30 33 35
25 25 25 24 22 21 20 19 18 17 17 17 18 18 18 17 18 19 18 18 17 17 18 18 19 20 20 20 21 21 21 21 22 23 23 24 25 22 19 18 16 15 17 17 16 17 18 18 22 26 25 26 28 28 29 32 31 28 29 34 38 40 40 41 41 40 40 40 39 39 39 36 32 27 23 19 17 17 19 19 21 24 24 27 30
26 26 25 23 22 21 19 18 18 17 17 17 17 17 17 16 17 17 17 16 16 17 18 18 18 18 19 20 20 20 21 21 21 21 22 23 23 22 21 19 17 15 17 17 15 17 19 19 21 24 23 23 27 29 30 31 32 31 32 34 36 38 40 42 42 41 40 40 40 40 40 38 34 29 25 22 20 18 16 15 18 21 21 23 25
26 25 23 22 21 20 19 18 18 17 17 16 16 16 16 15 16 16 16 16 16 17 17 17 16 16 16 17 18 19 19 20 20 20 20 20 21 21 20 20 19 16 15 17 16 16 19 20 21 22 22 22 25 28 30 31 32 32 32 33 36 38 39 41 43 43 42 43 44 43 42 41 39 34 29 27 26 21 16 12 14 17 20 24 25
24 23 21 21 21 20 19 17 17 17 16 16 15 15 15 15 15 15 14 13 14 15 15 15 14 13 13 12 14 16 17 18 20 19 18 18 19 20 19 19 20 17 14 15 16 16 19 23 24 25 26 26 26 27 28 31 32 32 33 35 38 41 42 42 44 45 45 46 47 47 44 44 44 41 34 31 30 26 18 10 9 11 14 19 22
23 22 21 21 20 19 18 17 17 16 16 15 15 14 15 14 13 13 12 10 9 11 11 11 11 11 10 10 11 13 14 15 18 19 19 19 19 20 20 20 21 19 15 15 17 18 21 26 27 28 29 29 28 26 26 28 31 34 35 36 36 40 43 45 46 47 48 49 50 50 48 47 48 44 38 34 33 28 19 11 5 4 7 11 13
22 21 20 20 19 17 16 16 15 15 15 14 13 12 12 11 10 10 10 8 8 9 9 9 9 9 9 9 9 11 12 14 17 19 21 21 21 21 21 21 22 21 19 19 20 21 23 27 28 29 30 31 29 26 25 27 30 33 35 34 33 35 41 45 47 48 50 51 51 51 50 50 49 45 39 36 34 30 24 18 11 5 3 4 5
21 20 18 18 17 16 15 13 13 13 13 12 10 9 9 8 7 8 8 8 8 8 7 8 8 8 8 9 8 9 11 13 17 19 21 22 21 21 22 22 22 22 21 22 22 21 23 25 27 28 28 29 29 26 24 27 29 29 31 32 31 33 38 42 45 48 50 51 52 52 50 50 50 48 42 39 37 34 30 26 20 13 10 9 6
20 19 17 17 16 14 13 12 11 11 11 9 7 7 7 6 6 7 6 6 7 7 7 7 7 7 8 8 8 9 10 13 17 19 20 22 22 21 22 23 23 22 21 22 22 21 21 22 25 26 26 27 28 24 23 26 28 28 29 30 30 32 36 39 42 45 48 49 50 51 50 50 52 52 48 44 41 38 34 31 28 23 18 16 14
19 18 17 16 15 13 12 12 11 9 8 8 6 5 5 5 5 5 5 6 5 5 5 6 6 7 7 7 8 8 8 12 16 18 20 22 23 23 23 24 24 23 21 21 22 21 19 20 23 25 25 27 28 25 23 26 28 29 29 30 31 33 35 36 39 43 46 47 49 50 50 50 53 54 51 47 44 41 37 34 31 29 25 22 21
19 18 16 15 14 12 11 10 10 8 7 7 6 5 5 5 5 3 4 6 6 5 5 5 5 6 6 6 8 7 7 11 15 17 19 21 22 23 24 24 24 23 21 22 24 21 19 19 22 24 25 27 28 26 25 26 28 29 31 32 32 33 33 35 38 41 44 46 48 49 49 49 51 54 53 49 46 43 40 36 34 33 30 28 26
18 17 16 14 13 12 11 10 9 8 7 7 6 5 4 5 6 4 2 4 5 6 6 5 6 7 6 5 7 8 8 11 14 15 17 18 20 21 22 22 23 23 23 25 24 20 18 19 21 23 24 25 26 25 25 27 29 31 31 32 32 33 34 35 38 40 42 44 46 48 48 47 48 52 53 50 47 45 41 38 38 37 35 33 30
18 16 15 14 13 13 11 10 9 9 8 7 6 5 3 2 2 2 2 3 3 4 5 5 6 8 7 6 7 9 10 11 13 14 15 17 18 19 20 21 22 23 25 26 22 18 18 19 20 21 23 23 24 24 25 27 29 30 30 30 32 33 34 36 37 39 41 43 44 46 48 46 45 49 52 50 47 46 43 41 41 40 38 36 33
17 16 15 14 14 13 11 10 10 9 8 8 7 6 6 4 2 2 2 2 2 3 4 5 5 6 7 7 8 8 9 10 11 13 14 15 16 18 19 19 21 23 25 23 19 17 18 19 19 20 22 23 23 24 24 25 27 28 28 30 33 33 33 35 36 37 40 41 41 44 47 45 43 45 49 49 47 47 46 44 42 41 39 37 35
17 15 15 14 13 13 12 10 10 10 9 9 8 6 6 6 5 4 3 3 3 4 5 5 5 6 6 7 7 8 9 9 10 12 13 14 15 17 17 18 20 23 23 20 17 17 18 19 19 20 21 21 22 23 23 23 25 27 27 28 30 31 32 34 35 36 38 38 39 43 46 45 41 40 44 47 46 46 48 46 41 39 40 40 39
17 15 15 14 13 12 12 11 11 11 10 9 9 7 6 6 5 5 4 3 4 5 6 7 7 7 6 7 8 8 9 10 10 11 12 13 14 15 17 18 19 20 18 17 17 17 17 18 19 19 20 21 21 22 23 23 24 26 27 27 28 30 32 34 36 37 36 36 38 42 43 43 41 39 40 44 45 44 46 47 42 37 39 42 43
17 16 16 15 13 12 12 12 11 11 11 10 9 8 7 6 6 5 5 5 4 4 5 7 8 8 8 7 7 8 9 9 10 10 11 13 14 15 16 15 15 15 14 15 16 16 16 18 19 19 19 20 21 21 22 22 22 24 26 26 27 30 32 35 37 37 34 34 37 40 39 40 41 39 38 42 44 41 41 44 44 39 36 39 43
17 16 16 16 15 12 12 12 12 11 11 11 10 9 8 7 6 6 5 5 4 4 4 5 7 10 10 10 8 8 8 8 9 9 10 12 14 14 13 12 13 13 13 14 15 16 15 16 18 18 18 20 20 20 21 22 22 23 25 25 26 29 31 33 36 37 34 33 35 38 37 37 38 39 38 39 41 39 37 39 43 43 38 37 39
17 16 15 16 16 14 13 12 12 12 12 11 10 10 9 8 7 6 6 5 5 5 4 5 6 9 10 11 11 10 8 7 8 10 11 13 15 14 11 10 12 12 13 13 14 15 15 15 17 17 18 19 20 20 20 21 21 23 25 25 25 28 30 31 34 35 34 32 33 35 35 34 35 37 37 36 37 39 37 35 38 42 43 40 39
17 16 15 16 16 15 14 13 14 14 13 12 11 10 9 9 8 7 7 6 6 6 6 6 6 7 7 8 11 11 9 8 9 11 11 11 12 11 9 9 10 11 11 12 13 14 14 14 15 16 17 18 19 19 20 21 21 23 25 25 25 27 29 30 33 35 34 31 31 32 33 33 33 34 35 33 33 36 37 34 33 36 41 42 41
16 16 16 17 17 17 15 14 14 14 14 13 12 11 10 10 9 9 8 8 7 7 7 7 7 7 6 6 7 9 8 8 7 7 7 8 8 8 8 8 9 10 10 11 12 13 13 13 14 15 16 17 19 20 20 21 22 23 24 25 25 27 27 29 32 34 32 30 30 31 31 31 30 31 33 32 30 31 35 35 32 31 34 38 39
15 15 16 17 18 18 16 15 14 14 15 14 13 12 12 11 11 10 9 9 9 8 8 8 8 8 7 7 7 7 8 8 7 7 7 7 7 7 7 8 9 9 10 10 11 12 12 12 13 14 15 16 18 20 20 22 24 24 24 24 25 26 26 28 30 32 31 29 29 30 30 29 29 29 31 31 29 29 30 32 32 30 30 32 34
15 14 15 17 19 20 18 17 16 15 15 15 13 13 13 12 12 12 11 10 10 9 9 9 9 8 9 10 10 9 8 8 8 8 8 8 8 8 8 8 8 8 9 9 10 10 11 12 12 13 14 16 18 19 20 22 24 25 24 25 25 25 26 27 29 30 30 28 28 29 29 28 27 28 29 29 28 28 28 28 29 29 29 28 28
15 14 14 16 19 20 19 18 17 16 15 15 14 14 13 12 12 12 12 12 12 11 11 11 10 9 11 13 12 9 8 9 9 9 9 9 8 8 8 8 8 8 8 9 9 10 11 12 12 12 14 15 17 18 20 21 23 24 24 25 26 26 26 26 28 29 29 28 27 27 27 27 25 25 27 27 27 27 28 28 26 26 27 27 26
16 15 14 15 17 19 19 18 17 17 16 16 15 14 13 13 13 13 13 13 13 12 12 12 11 10 12 14 14 11 10 10 10 10 9 9 9 9 9 8 8 8 8 8 9 9 11 12 12 12 13 13 14 16 17 18 21 22 23 24 25 26 25 26 27 27 27 28 27 26 25 25 24 23 24 25 25 25 27 28 26 25 25 25 25
16 16 15 15 16 17 18 17 17 17 17 16 16 15 14 14 14 14 14 14 14 13 13 13 12 11 12 13 14 13 11 10 10 10 10 9 9 10 9 8 9 9 9 9 9 10 11 11 11 12 13 12 13 14 15 16 18 20 21 22 24 25 25 25 26 26 26 27 27 25 24 24 24 22 21 21 22 23 24 25 26 25 23 23 24
18 17 16 16 16 16 16 17 17 17 17 17 17 16 16 16 15 15 15 14 14 14 13 13 13 12 12 12 13 12 12 11 11 11 11 10 10 10 9 9 10 10 10 10 10 11 12 11 11 11 12 12 12 13 12 13 15 17 18 20 21 22 23 23 24 24 25 24 24 24 24 23 23 22 20 18 18 20 21 22 23 22 21 22 23
18 18 18 17 17 17 17 17 17 17 17 17 17 16 16 17 16 16 16 15 15 15 14 14 13 13 13 13 13 13 13 13 12 12 12 12 11 11 10 10 10 11 11 11 12 12 13 12 11 11 12 12 12 12 11 10 12 14 15 16 18 20 21 21 22 23 23 23 23 24 24 23 22 22 21 18 16 16 17 19 20 19 19 18 19
18 18 19 18 18 18 18 17 18 18 17 17 17 17 17 17 17 17 17 17 17 16 16 15 15 14 14 14 14 14 14 14 13 13 13 13 13 12 12 12 12 13 12 12 13 14 14 13 13 13 12 12 12 12 11 10 10 11 12 13 15 17 19 19 20 21 21 21 22 23 23 22 22 21 21 20 18 15 14 15 16 17 17 16 15
18 18 19 19 19 19 18 18 18 19 18 18 18 18 18 18 17 17 17 17 18 18 18 18 17 17 16 16 15 15 15 15 15 14 14 14 14 14 14 14 15 15 14 13 14 15 15 15 14 14 13 13 12 12 11 10 10 10 10 12 14 15 16 17 19 19 19 20 21 21 21 22 22 21 20 20 19 17 14 12 12 14 15 14 13
19 18 19 19 19 19 18 18 18 18 18 18 18 18 18 19 19 18 18 18 18 18 18 18 18 18 17 17 17 16 16 16 16 16 16 15 15 15 15 16 17 18 17 16 16 17 17 17 16 15 14 14 14 13 12 11 11 10 10 11 13 14 14 15 16 17 18 19 19 19 18 19 20 20 20 19 18 17 15 12 12 13 13 12 11
19 19 19 19 19 19 19 19 18 18 18 17 17 17 17 17 18 18 18 18 18 18 18 18 18 19 18 18 18 18 18 18 17 17 17 17 17 16 16 17 19 21 21 20 19 19 19 19 18 18 17 16 15 14 14 13 12 11 11 11 12 13 13 14 15 15 16 17 17 17 18 18 18 18 19 18 17 17 15 13 12 13 12 11 11
21 20 20 20 20 20 19 19 19 19 19 18 17 16 16 16 17 17 17 18 18 18 18 18 18 19 19 19 19 19 19 19 18 18 18 18 18 18 17 18 20 22 23 23 22 21 21 20 21 20 20 18 17 16 15 15 14 13 13 12 12 13 13 13 14 14 14 15 15 15 16 17 17 17 17 17 16 16 15 14 13 12 11 10 11
Wind_Direction
97 96 94 97 101 100 100 100 101 102 101 99 98 95 93 91 86 82 80 76 73 68 64 60 55 51 47 44 41 39 37 36 35 35 33 33 31 30 30 28 26 25 24 21 18 17 17 13 5 3 5 3 2 357 350 347 344 340 335 328 325 324 320 312 307 305 302 302 302 297 293 289 280 273 274 274 272 272 270 267 263 258 257 256 255
100 97 96 99 102 102 103 104 105 105 103 102 99 96 94 91 88 86 82 79 75 70 65 60 56 52 48 45 42 39 37 35 35 34 33 32 31 29 28 26 25 24 22 20 18 16 15 11 3 2 4 2 359 355 351 347 344 341 335 329 324 322 321 315 308 307 306 309 312 309 304 300 291 280 275 273 270 270 270 267 261 255 253 251 250
103 99 101 104 104 105 107 108 108 107 104 103 101 99 96 93 91 87 83 79 74 69 65 60 56 53 50 46 43 40 38 36 34 33 32 31 29 28 26 24 23 23 21 19 18 16 13 9 4 2 2 0 358 355 351 347 346 343 335 329 326 322 320 316 310 306 305 308 312 313 311 309 303 294 285 278 273 270 268 267 265 258 251 249 247
107 105 107 107 107 109 111 112 111 109 107 105 102 100 97 94 90 86 82 78 72 67 63 59 55 52 50 47 43 41 38 36 34 32 31 30 28 27 25 24 24 22 20 18 17 15 11 8 4 2 1 0 358 356 352 349 347 343 336 331 327 323 320 316 311 307 304 305 309 311 309 308 307 305 300 290 280 275 271 268 268 264 256 253 250
114 114 112 111 113 115 115 114 113 110 108 105 102 99 96 93 89 85 80 75 70 65 61 58 54 50 47 45 43 41 38 35 33 31 30 29 28 27 25 25 24 22 21 19 17 14 11 6 3 1 0 360 359 356 353 352 348 343 338 333 327 323 320 316 313 309 305 302 305 309 309 307 306 306 307 303 293 285 277 270 267 266 265 261 253
121 120 119 119 121 120 118 116 113 110 108 105 102 100 96 92 87 83 78 73 69 64 60 57 54 49 46 43 41 39 37 35 32 30 29 28 27 26 25 24 23 22 22 19 17 12 8 5 3 2 1 359 357 355 353 351 348 343 339 332 327 323 320 319 316 311 308 304 303 305 307 306 305 304 304 304 300 292 284 276 268 264 264 263 254
126 125 126 127 126 123 120 118 115 112 109 106 103 99 95 91 86 82 77 73 68 64 61 57 54 50 45 42 39 36 35 34 32 31 29 28 27 25 23 23 21 22 22 19 16 10 5 4 2 0 1 359 355 353 352 350 347 345 341 335 329 325 321 320 318 313 309 306 305 304 304 304 303 302 304 304 302 295 287 282 275 268 264 262 257
130 129 130 130 127 125 122 118 115 113 110 106 103 98 94 90 86 82 77 74 70 66 62 58 55 50 45 42 37 33 31 31 30 30 27 27 28 25 22 22 20 20 21 18 15 9 5 4 1 359 359 357 354 352 352 351 348 345 343 339 334 328 322 319 317 314 312 308 307 305 303 303 302 301 304 304 302 297 290 286 282 274 267 263 258
133 132 131 130 127 125 121 118 114 111 107 104 100 97 94 89 86 82 78 74 70 67 63 59 56 52 46 42 36 32 31 28 27 26 25 25 29 28 25 23 21 18 16 14 12 8 6 2 359 357 355 352 351 351 352 352 349 346 344 341 337 330 324 320 318 316 313 308 307 307 304 303 303 303 303 302 298 296 293 289 284 277 270 262 256
136 134 132 129 126 123 119 115 112 109 106 103 99 96 93 89 86 82 79 76 72 69 66 62 59 54 49 43 37 34 32 29 26 24 24 23 26 30 28 24 21 16 11 10 7 4 4 1 356 355 352 349 349 348 348 350 350 346 344 343 340 334 327 322 318 315 313 308 306 306 303 300 301 301 300 299 298 295 294 292 289 284 278 267 258
140 135 131 128 125 122 118 115 113 109 106 102 99 95 92 89 86 83 80 76 72 70 67 63 60 55 50 45 39 36 33 30 26 24 24 22 25 30 27 20 20 16 11 11 7 2 1 358 356 355 352 351 348 344 345 348 348 346 345 345 344 337 327 320 315 312 311 308 305 304 300 299 301 301 298 298 299 297 293 290 289 287 284 275 266
141 135 132 129 126 123 119 116 113 109 105 101 98 95 92 91 88 84 80 76 72 70 66 63 60 55 52 47 42 40 36 32 28 25 25 24 28 33 27 19 20 17 13 12 8 4 0 357 358 355 351 352 348 344 345 347 347 347 348 348 343 336 328 320 315 313 310 306 304 301 298 296 298 298 296 295 296 295 292 289 286 283 280 277 270
142 136 133 131 128 124 120 117 112 108 105 102 99 97 94 93 89 84 80 76 73 70 65 62 60 56 55 51 46 42 38 34 31 30 28 28 33 36 30 21 21 17 14 12 9 6 2 359 359 355 352 352 348 345 346 347 348 349 349 347 342 338 335 328 321 315 308 303 300 299 299 297 294 294 295 294 293 292 291 288 285 281 276 272 270
142 138 136 133 129 125 120 116 112 108 106 103 102 100 97 93 89 84 80 77 73 69 65 62 60 58 56 53 48 43 40 36 32 32 31 31 36 37 30 23 23 18 14 13 10 8 5 3 0 355 354 353 349 348 347 349 351 349 344 345 344 342 339 332 325 318 311 306 301 299 302 300 295 294 293 292 291 290 288 286 282 281 276 271 270
143 141 138 134 129 125 121 118 114 110 109 106 104 101 96 91 87 83 80 77 72 69 66 63 61 58 56 54 49 42 39 36 33 32 31 33 37 36 27 24 25 19 16 15 11 8 7 6 2 357 357 356 353 352 350 351 354 349 343 346 346 344 343 337 330 326 322 318 310 305 306 303 297 295 291 287 286 284 284 282 280 279 279 274 271
146 144 139 134 130 126 123 120 116 113 111 107 103 99 94 90 86 82 79 76 72 69 66 63 61 57 55 54 50 41 37 36 34 32 31 34 39 34 23 22 23 17 16 15 11 7 4 6 6 2 1 0 356 354 353 355 355 349 346 348 347 345 347 346 342 338 335 331 324 318 313 305 298 296 291 283 282 283 284 282 279 277 276 273 269
148 144 139 134 131 128 126 123 120 116 111 107 103 97 92 88 85 82 79 75 72 69 66 62 60 57 53 54 52 45 38 35 34 34 31 33 39 34 21 20 20 14 14 12 8 6 360 359 4 5 3 1 359 357 358 359 359 352 349 352 352 351 352 351 351 350 346 342 339 332 325 315 304 299 293 283 280 283 284 280 277 276 272 266 264
147 143 139 136 133 131 129 126 122 117 112 107 101 95 91 87 84 82 79 75 72 69 65 61 59 56 52 52 52 48 41 36 34 35 32 32 38 36 22 19 19 12 10 8 5 4 358 353 357 2 2 1 1 2 2 3 3 357 352 355 357 357 355 355 356 355 351 351 350 345 339 332 319 308 299 288 282 283 284 278 274 275 270 263 261
147 144 141 138 136 133 132 129 124 119 112 107 101 95 91 87 85 83 79 75 72 69 66 62 58 55 52 49 49 48 44 38 34 34 33 31 36 37 24 19 21 12 6 5 0 358 358 353 351 355 359 1 4 6 8 9 8 2 356 359 1 359 358 359 358 355 353 354 355 354 350 346 337 325 313 300 292 292 289 279 269 268 269 264 259
148 146 142 140 138 136 134 131 125 120 113 107 102 97 93 89 86 84 81 78 75 72 69 65 59 56 52 48 47 46 43 39 33 32 32 29 31 36 28 19 22 14 2 2 0 356 358 356 349 350 355 2 8 12 13 13 13 8 4 5 3 0 360 1 359 356 355 356 357 357 356 353 348 341 331 322 316 309 297 277 259 256 262 263 258
148 145 141 139 138 136 135 132 127 121 113 108 103 98 94 91 87 85 83 80 77 72 69 66 59 55 53 49 46 43 40 39 33 29 29 27 27 32 28 22 29 24 3 359 3 359 357 356 351 351 356 3 11 17 16 15 15 11 9 8 5 1 2 2 0 358 358 359 360 359 358 357 354 350 344 343 342 330 310 281 258 249 247 249 250
147 143 140 139 138 137 136 133 127 121 114 108 103 98 95 90 87 88 85 80 76 72 69 67 61 55 51 46 42 39 37 35 32 27 26 25 24 26 24 21 27 27 5 358 4 1 359 1 359 360 4 6 11 17 16 15 15 11 8 9 7 5 4 3 2 2 3 4 4 3 2 0 359 356 353 352 353 347 329 296 265 249 241 239 240
145 143 142 141 140 139 136 132 127 121 115 110 104 99 95 90 88 90 87 80 74 70 66 65 61 55 52 44 38 36 32 28 29 27 24 24 24 24 21 16 18 21 8 358 360 359 2 8 9 10 12 11 11 12 9 9 12 11 8 9 9 7 6 5 5 7 7 8 8 7 6 5 3 0 357 355 357 356 348 323 285 259 240 233 234
146 145 144 142 140 138 135 131 125 121 116 110 105 100 96 92 89 89 89 84 77 71 65 63 60 54 51 45 36 34 29 22 21 23 24 26 25 22 20 14 13 18 13 358 355 360 6 11 12 12 12 11 10 7 0 1 7 8 8 8 6 4 6 7 8 10 11 10 10 9 9 8 5 3 1 359 358 360 2 7 356 286 226 212 217
148 146 144 142 140 138 135 130 126 123 118 111 107 102 97 95 92 89 88 86 79 73 66 61 59 52 48 45 34 30 27 20 18 20 22 24 23 19 17 13 10 14 12 1 360 5 8 10 11 10 9 9 8 4 356 358 2 2 3 5 1 0 5 8 9 11 12 12 10 9 9 9 7 5 5 5 5 6 12 25 37 57 134 153 181
149 148 147 145 142 139 138 135 131 127 121 115 113 110 103 102 99 89 86 83 79 76 67 60 57 49 43 39 31 27 23 17 18 22 23 23 22 17 13 11 11 11 7 2 4 7 4 4 7 7 5 6 6 3 356 358 1 360 360 2 360 359 4 8 10 12 13 11 10 8 8 10 10 11 11 13 14 13 16 24 34 50 66 62 66
152 152 151 149 145 145 146 143 139 132 125 124 126 121 113 109 98 88 86 81 75 73 68 61 56 48 40 33 28 27 20 13 16 20 23 24 23 18 13 12 13 11 5 3 9 9 0 357 0 3 2 3 4 3 358 357 360 359 359 0 359 358 1 5 10 14 13 10 9 10 11 12 13 14 14 16 17 17 19 26 35 44 50 52 58
156 155 154 152 151 153 153 146 142 141 140 141 142 133 124 115 100 93 99 98 91 83 74 63 54 49 41 29 27 28 16 9 12 17 20 21 21 20 17 15 15 14 8 9 16 13 359 353 358 1 3 3 3 4 1 359 358 358 359 359 358 358 359 1 7 13 14 11 10 12 15 16 15 14 13 15 18 19 20 25 33 41 47 52 57
160 158 158 159 158 160 160 152 150 159 162 157 157 158 150 137 128 113 91 92 97 97 87 74 60 58 49 29 28 31 17 8 12 16 18 17 18 18 17 17 18 17 15 19 23 14 358 353 358 0 2 3 3 3 2 359 357 358 0 359 358 358 358 0 7 12 14 12 11 12 14 15 14 12 13 15 19 21 21 23 28 37 45 50 53
164 164 165 166 166 167 170 168 168 173 175 171 170 172 158 136 137 143 107 76 78 77 76 67 53 55 57 36 24 28 22 11 12 15 16 15 16 17 16 17 19 20 21 25 24 11 356 356 358 358 360 2 2 2 1 358 356 358 0 359 359 358 358 2 8 14 15 14 12 12 13 13 13 12 13 15 19 22 24 27 31 35 41 44 47
170 171 173 175 176 176 177 180 182 182 183 185 184 184 182 143 109 110 95 73 58 49 52 51 40 42 48 40 22 20 19 12 10 13 14 13 14 14 13 15 17 18 22 25 19 3 357 358 357 357 360 1 360 1 2 360 358 358 359 358 358 358 359 2 8 15 18 15 13 16 17 14 12 12 12 15 19 21 25 31 35 36 38 41 44
174 176 178 180 183 184 184 187 190 190 191 193 192 190 195 208 249 312 1 41 48 31 27 30 26 25 30 31 22 14 10 7 8 10 11 11 12 10 9 10 13 17 22 21 9 357 358 360 357 357 359 359 359 0 1 1 359 358 359 359 359 358 360 1 6 16 19 14 12 18 20 15 12 13 13 16 20 22 25 30 33 33 36 41 44
180 180 182 183 186 188 190 193 196 197 196 197 197 197 196 198 212 241 279 334 4 5 5 7 11 12 12 15 17 12 4 3 7 7 7 9 10 7 6 9 12 16 18 13 2 357 360 360 358 359 358 358 359 359 359 359 358 358 359 360 359 359 0 2 8 18 18 12 13 20 22 17 13 13 14 17 20 22 25 30 32 32 35 41 45
186 186 187 188 189 192 195 198 200 200 200 199 198 200 202 199 199 208 227 263 308 328 334 336 343 353 357 359 5 6 2 2 3 3 5 9 7 5 8 11 9 8 8 3 358 359 360 358 359 359 358 357 358 358 358 358 358 358 359 359 359 0 2 4 11 18 16 11 14 20 20 16 14 12 13 17 20 22 26 31 35 35 37 43 47
192 194 195 194 193 196 200 202 202 201 201 201 200 199 201 202 201 204 212 225 246 273 294 305 314 328 343 352 355 358 360 1 0 1 4 5 4 8 12 8 360 358 0 358 357 359 359 359 359 359 358 358 358 357 358 359 358 359 0 360 359 1 4 6 11 17 15 11 15 19 17 14 14 14 15 18 20 23 25 30 36 41 41 44 48
196 199 201 200 200 202 204 204 204 203 201 200 201 201 201 203 206 211 218 223 232 243 248 259 282 306 327 339 343 349 354 354 356 3 5 1 5 13 13 358 350 353 356 355 356 359 358 358 0 360 358 359 359 358 358 359 359 360 3 2 360 2 5 5 9 16 17 13 16 20 17 12 13 16 18 19 21 24 25 28 36 44 48 49 51
198 200 203 204 204 206 207 204 204 204 202 201 203 204 205 209 212 215 223 227 235 249 253 249 264 289 310 318 320 329 343 349 354 1 1 359 5 12 3 344 344 351 352 351 354 357 357 358 360 1 360 360 0 360 360 1 360 1 5 6 2 4 7 6 9 17 19 14 14 18 17 13 13 17 20 21 22 24 25 27 34 43 50 55 57
200 202 204 205 205 205 206 206 206 207 205 204 206 209 211 215 218 222 229 234 238 248 255 258 262 270 279 288 298 312 329 343 349 349 344 345 352 353 340 334 341 345 347 349 352 354 355 356 357 359 0 0 2 2 2 2 3 5 7 7 5 6 8 8 12 19 21 15 13 18 19 15 15 18 21 23 23 24 26 28 31 38 47 55 58
203 206 209 210 208 205 206 207 207 209 210 209 212 216 217 221 225 227 232 239 243 249 255 258 262 265 262 261 276 295 310 319 320 317 314 318 324 325 325 330 336 338 342 347 349 351 354 354 354 358 359 360 3 5 5 6 9 9 8 7 7 8 9 9 13 20 22 16 15 20 21 18 17 21 24 24 23 25 28 30 30 33 40 49 57
204 210 216 216 210 206 207 208 208 211 213 213 217 221 222 226 231 233 237 241 244 248 254 256 259 263 260 254 256 268 282 290 291 291 295 299 305 313 319 323 327 332 338 342 344 348 351 351 351 354 356 359 3 7 8 10 14 15 12 9 9 10 10 11 14 21 23 19 17 20 23 20 19 23 26 25 23 27 30 32 33 34 36 41 50
204 211 218 215 208 205 207 210 210 213 216 217 221 226 227 231 235 236 240 244 245 248 253 256 259 260 257 258 262 265 271 278 281 283 288 290 294 301 307 311 318 324 328 332 338 342 346 349 350 349 351 356 1 6 9 13 16 18 17 13 13 13 12 12 16 21 25 24 19 18 22 23 20 22 27 27 25 29 33 33 33 36 38 39 42
206 208 212 212 206 205 209 213 214 217 219 221 224 228 231 235 238 239 241 244 246 249 252 254 258 258 260 267 271 269 267 272 273 274 280 285 287 291 295 299 307 312 316 323 329 333 340 347 349 347 348 350 355 360 5 10 13 17 18 16 16 17 14 13 17 20 24 27 24 18 18 22 22 22 27 29 27 31 38 38 34 35 38 40 42
207 206 208 209 207 208 212 215 217 220 222 223 226 230 235 238 239 241 243 243 245 248 251 253 256 257 262 271 275 269 265 268 268 268 274 278 279 284 288 290 293 298 306 314 316 320 330 340 343 345 347 349 349 352 357 2 7 13 16 16 18 19 16 15 18 19 22 28 29 23 17 18 20 22 26 28 28 32 40 43 40 36 36 40 45
209 208 208 208 208 211 215 216 219 222 223 225 228 232 238 240 240 240 242 243 244 247 249 251 254 254 257 266 271 268 264 261 260 261 267 272 275 280 283 283 283 288 296 301 302 306 318 329 336 342 346 348 349 349 351 353 359 5 11 13 16 17 17 16 19 20 21 25 29 28 22 18 18 21 25 27 26 29 36 42 42 40 37 38 44
210 211 212 211 212 215 217 218 221 223 224 228 233 236 240 241 239 238 240 242 243 246 248 250 252 252 251 255 259 259 257 256 256 257 262 266 271 275 277 278 279 283 289 293 294 301 313 321 325 330 335 341 347 350 350 348 349 355 3 7 10 13 14 15 18 21 22 22 26 30 28 23 19 22 27 28 27 29 34 38 41 41 38 36 39
212 213 216 216 217 219 220 221 223 225 227 231 235 237 239 239 237 237 240 241 242 245 248 249 251 252 252 252 252 252 252 253 255 257 259 262 266 270 273 275 278 282 287 287 288 297 309 314 315 318 324 331 339 346 349 346 342 346 354 359 2 6 9 10 14 20 22 21 24 29 30 26 24 26 29 30 31 34 36 37 38 40 40 39 39
216 217 219 220 221 222 223 223 226 228 230 234 236 237 238 238 237 238 240 241 243 245 247 249 251 252 252 252 252 251 251 252 254 256 259 260 262 265 268 272 279 289 294 291 288 293 300 305 308 312 316 320 327 336 342 340 335 339 346 349 354 360 3 5 10 15 16 17 23 28 28 26 26 27 29 30 34 37 37 34 31 31 34 39 41
219 221 223 222 222 223 224 226 228 230 233 236 238 239 238 238 239 240 241 243 244 246 246 249 251 252 252 253 253 252 252 253 254 257 259 260 262 265 265 268 278 290 297 296 294 295 296 295 298 302 304 307 314 323 330 330 329 333 337 339 346 356 360 1 5 8 8 11 18 24 24 23 25 26 27 28 31 33 35 37 33 25 23 30 40
222 223 222 221 221 222 225 227 229 231 234 237 239 240 240 239 239 240 242 243 246 247 247 248 250 250 251 253 253 253 255 255 255 257 259 261 262 264 264 265 274 286 293 294 296 300 301 298 296 296 297 298 301 306 313 319 321 322 324 330 340 351 356 357 0 3 3 5 10 15 15 16 20 24 25 26 30 31 31 38 41 29 18 19 30
221 222 222 222 223 225 227 229 231 233 235 237 238 239 239 239 239 241 243 244 247 248 249 249 250 251 252 253 253 254 256 256 256 258 261 262 263 265 264 262 269 282 291 293 294 297 299 298 295 293 293 293 292 292 297 304 308 310 314 322 333 342 348 351 354 356 358 360 3 7 6 5 10 17 20 23 27 29 29 35 42 34 19 13 18
222 223 223 224 225 227 229 232 234 235 235 236 237 238 239 240 242 243 244 246 248 249 250 251 252 253 253 254 255 256 257 258 258 259 262 263 263 265 264 263 267 278 287 290 290 291 293 295 295 293 290 289 289 288 289 291 295 300 306 315 323 330 336 342 346 349 351 353 356 359 1 359 360 5 10 13 20 27 28 31 38 33 18 11 14